This is the latest recevied weather packets stored in our database for station/object K4HOG. If no packets are shown the sender has not sent any weather packets the latest 10 day(s).
| Time | Temp. | Humidity | Pressure | Rain* | Wind** | Luminosity | Snow |
|---|---|---|---|---|---|---|---|
| 1778068757 | 18.89° C | 93% | 1016.5 hPa | 0 mm | - | 71 W/m² | - |
| 1778068456 | 18.33° C | 94% | 1016.2 hPa | 0 mm | - | 51 W/m² | - |
| 1778068154 | 17.78° C | 94% | 1016.2 hPa | 0 mm | - | 40 W/m² | - |
| 1778067851 | 17.78° C | 95% | 1016.2 hPa | 0 mm | - | 36 W/m² | - |
| 1778067550 | 17.78° C | 95% | 1016.1 hPa | 0 mm | - | 35 W/m² | - |
| 1778067247 | 17.22° C | 95% | 1016.2 hPa | 0 mm | - | 34 W/m² | - |
| 1778066944 | 17.22° C | 95% | 1015.9 hPa | 0 mm | - | 30 W/m² | - |
| 1778066641 | 16.67° C | 95% | 1016.1 hPa | 0 mm | - | 26 W/m² | - |
| 1778066338 | 16.67° C | 95% | 1016.1 hPa | 0 mm | - | 23 W/m² | - |
| 1778066036 | 16.67° C | 95% | 1016.1 hPa | 0 mm | - | 18 W/m² | - |
| 1778065733 | 16.67° C | 95% | 1016 hPa | 0 mm | - | 14 W/m² | - |
| 1778065430 | 16.67° C | 95% | 1016 hPa | 0 mm | - | 12 W/m² | - |
| 1778065127 | 16.67° C | 95% | 1016.1 hPa | 0 mm | - | 8 W/m² | - |
| 1778064823 | 16.67° C | 95% | 1016 hPa | 0 mm | - | 5 W/m² | - |
| 1778064521 | 16.67° C | 95% | 1015.7 hPa | 0 mm | - | 3 W/m² | - |
| 1778064218 | 16.67° C | 95% | 1015.7 hPa | 0 mm | - | 2 W/m² | - |
| 1778063916 | 16.67° C | 95% | 1015.7 hPa | 0 mm | - | 1 W/m² | - |
| 1778063613 | 16.67° C | 95% | 1015.6 hPa | 0 mm | - | 0 W/m² | - |
| 1778063311 | 16.67° C | 94% | 1015.7 hPa | 0 mm | - | 0 W/m² | - |
| 1778063009 | 16.67° C | 94% | 1015.5 hPa | 0 mm | - | 0 W/m² | - |
| 1778062706 | 16.67° C | 94% | 1015.5 hPa | 0 mm | - | 0 W/m² | - |
| 1778062401 | 16.67° C | 94% | 1015.6 hPa | 0 mm | - | 0 W/m² | - |
| 1778062100 | 16.67° C | 94% | 1015.4 hPa | 0 mm | - | 0 W/m² | - |
| 1778061798 | 16.67° C | 94% | 1015.4 hPa | 0 mm | - | 0 W/m² | - |
| 1778061496 | 16.67° C | 94% | 1015.6 hPa | 0 mm | - | 0 W/m² | - |
* Rain latest hour (hover to see other rain measurements)
** Current wind speed in m/s (hover to see current wind gust speed)